TimeMDT,TemperatureF,Dew PointF,Humidity,Sea Level PressureIn,VisibilityMPH,Wind Direction,Wind SpeedMPH,Gust SpeedMPH,PrecipitationIn,Events,Conditions,WindDirDegrees,DateUTC
12:53 AM,51.1,35.1,54,29.67,10.0,ESE,10.4,-,N/A,,Clear,110,2013-09-30 06:53:00
1:53 AM,52.0,36.0,54,29.64,10.0,ESE,6.9,-,N/A,,Clear,110,2013-09-30 07:53:00
2:53 AM,54.0,36.0,51,29.62,10.0,SSW,9.2,-,N/A,,Partly Cloudy,210,2013-09-30 08:53:00
3:53 AM,48.9,37.0,64,29.61,10.0,Calm,Calm,-,N/A,,Clear,0,2013-09-30 09:53:00
4:53 AM,53.1,37.9,57,29.58,10.0,South,12.7,20.7,N/A,,Partly Cloudy,170,2013-09-30 10:53:00
5:53 AM,53.1,37.9,57,29.55,10.0,SSW,9.2,-,N/A,,Clear,210,2013-09-30 11:53:00
6:53 AM,46.0,37.9,73,29.54,10.0,WSW,4.6,-,N/A,,Scattered Clouds,240,2013-09-30 12:53:00
7:53 AM,46.9,41.0,80,29.57,4.0,West,11.5,17.3,0.02,Rain,Light Rain,270,2013-09-30 13:53:00
8:10 AM,46.4,42.8,87,29.61,2.5,West,18.4,39.1,0.07,Rain,Light Rain,280,2013-09-30 14:10:00
8:17 AM,46.4,39.2,76,29.60,8.0,West,17.3,29.9,0.08,Rain,Light Rain,270,2013-09-30 14:17:00
8:53 AM,46.9,37.0,68,29.67,10.0,West,12.7,26.5,0.08,,Overcast,270,2013-09-30 14:53:00
9:53 AM,48.0,35.1,61,29.70,10.0,West,11.5,18.4,N/A,,Mostly Cloudy,280,2013-09-30 15:53:00
10:53 AM,51.1,28.0,41,29.68,10.0,WSW,16.1,26.5,N/A,,Partly Cloudy,250,2013-09-30 16:53:00
11:53 AM,51.1,25.0,36,29.69,10.0,Variable,4.6,-,N/A,,Scattered Clouds,0,2013-09-30 17:53:00
12:53 PM,55.9,24.1,29,29.71,10.0,West,23.0,35.7,N/A,,Clear,260,2013-09-30 18:53:00
1:53 PM,55.9,25.0,30,29.73,10.0,West,20.7,28.8,N/A,,Clear,270,2013-09-30 19:53:00
2:53 PM,55.0,24.1,30,29.73,10.0,West,24.2,36.8,N/A,,Partly Cloudy,280,2013-09-30 20:53:00
3:53 PM,57.9,21.9,25,29.75,10.0,West,27.6,39.1,N/A,,Clear,260,2013-09-30 21:53:00
4:53 PM,57.9,23.0,26,29.76,10.0,West,23.0,33.4,N/A,,Clear,280,2013-09-30 22:53:00
5:53 PM,54.0,25.0,33,29.80,10.0,West,17.3,29.9,N/A,,Partly Cloudy,280,2013-09-30 23:53:00
6:53 PM,51.1,27.0,39,29.86,10.0,West,11.5,-,N/A,,Clear,270,2013-10-01 00:53:00
7:53 PM,50.0,28.0,43,29.90,10.0,West,9.2,-,N/A,,Mostly Cloudy,280,2013-10-01 01:53:00
8:53 PM,48.9,28.9,46,29.93,10.0,West,11.5,21.9,N/A,,Clear,280,2013-10-01 02:53:00
9:53 PM,46.0,30.9,56,29.95,10.0,WNW,8.1,-,N/A,,Clear,290,2013-10-01 03:53:00
10:53 PM,44.1,28.9,55,29.97,10.0,Calm,Calm,-,N/A,,Clear,0,2013-10-01 04:53:00
11:53 PM,44.1,28.9,55,29.96,10.0,Calm,Calm,-,N/A,,Scattered Clouds,0,2013-10-01 05:53:00